CZ-6A DEB

Satellite information

Favourite Embed

Satellite Type and Status

DEBRISIN ORBIT

Key statistics

Satellite CZ-6A DEB at a glance.

Uptime

1129

Days in orbit

Revolutions

≈ 14.2

Per day

Orbit

SSO

Sun Synchronous Orbit

Inclination

98.8

Latest

Satellite identification and parameters

Extended collection of information and parameters for CZ-6A DEB.

Object identification

Identified? True

Debris? True

Object name: CZ-6A DEB

International designator: 2022-151VQ

Object number (NORAD): 55199

Object ID (CCSDS): 55199

Country: PEOPLES REPUBLIC OF CHINA (PRC)

Current information (Y/N): Y

RCS size: SMALL

Orbital parameters

Period: 101.358 minutes

Inclination: 98.8088 deg

SMA: 7201.122 km

Apoapsis: 854.092 km

Periapsis: 791.883 km

RAAN: 353.3039 deg

Eccentricy: 0.00431942

Argument of periapsis: 133.2414 deg

Mean anomaly: 227.2381 deg

Mean motion: 14.20700298 rev/day

Mean motion (dot): 0.00005112 rev/day2

B* drag term: 0.0023685923 1/REarth

Two-line elements (TLE)

Creation date: Dec. 14, 2025, 3:07 a.m.

Reference frame: TEME

Reference center: EARTH

Epoch: Dec. 13, 2025, 11:59 a.m. UTC

TLE line 0: 0 CZ-6A DEB

TLE line 1: 1 55199U 22151VQ 25347.49946695 .00005112 00000-0 23686-2 0 9999

TLE line 2: 2 55199 98.8088 353.3039 0043194 133.2414 227.2381 14.20700298154195

Live tracking on map

Real-time ground track for satellite CZ-6A DEB.

In-orbit conjunctions

A list of the most updated potential collisions computed for object CZ-6A DEB.

Target Orbit TCA Probability of collision Miss distance Type
THORAD AGENA D DEB LEO 2025-11-22 08:40:18 0.0002589375 115.0 (m) DEBRIS
THORAD AGENA D DEB SSO 2025-06-29 10:36:02 0.0001704483 231.0 (m) DEBRIS
THOR BURNER 2 R/B SSO 2024-09-12 19:57:48 0.0001409334 136.0 (m) ROCKET BODY

Associated space launch

Chinese satellite reported for atmospheric/ocean/environmental/spatial parameter research purposes, details TBD.

CZ-6A DEB was lifted into orbit during the mission ‘Long March 6A | Yunhai 3’, on board a Long March 6A space rocket.

The launch took place on Nov. 11, 2022, 10:52 p.m. from Launch Complex 9A.

For more information about the launch, click the button.

Launch to space Long March 6A | Yunhai 3
Long March 6A | Yunhai 3

Agency: N/A

Status: Launch Successful

Launch date: Nov. 11, 2022, 10:52 p.m. UTC

Rocket: Long March 6A

Launch pad: Launch Complex 9A

Location: Taiyuan Satellite Launch Center, People's Republic of China

...

Latest news about this satellite

There are no fresh news available about this satellite. Check back as we update our databases every day.


Newsletter sign-up

Weekly statistics, charts and insights to help you stay on top of the space industry.